status,avgMeasuredTime,avgSpeed,extID,medianMeasuredTime,TIMESTAMP,vehicleCount,_id,REPORT_ID
OK,266,39,610,266,2014-08-01T07:50:00,1,20746162,210013
OK,260,40,610,260,2014-08-01T07:55:00,2,20746334,210013
OK,254,41,610,254,2014-08-01T08:00:00,0,20746665,210013
OK,254,41,610,254,2014-08-01T08:05:00,0,20747114,210013
OK,254,41,610,254,2014-08-01T08:10:00,0,20747487,210013
OK,254,41,610,254,2014-08-01T08:15:00,0,20747936,210013
OK,254,41,610,254,2014-08-01T08:20:00,0,20748385,210013
OK,254,41,610,254,2014-08-01T08:25:00,0,20748834,210013
OK,254,41,610,254,2014-08-01T08:30:00,0,20749283,210013
OK,254,41,610,254,2014-08-01T08:35:00,0,20749732,210013
OK,254,41,610,254,2014-08-01T08:40:00,0,20750181,210013
OK,189,55,610,189,2014-08-01T08:45:00,2,20750630,210013
OK,189,55,610,189,2014-08-01T08:50:00,2,20751079,210013
OK,189,55,610,189,2014-08-01T08:55:00,0,20751528,210013
OK,189,55,610,189,2014-08-01T09:00:00,0,20751977,210013
OK,189,55,610,189,2014-08-01T09:05:00,0,20752426,210013
OK,235,44,610,235,2014-08-01T09:10:00,1,20752875,210013
OK,235,44,610,235,2014-08-01T09:15:00,1,20753324,210013
OK,257,41,610,257,2014-08-01T09:20:00,1,20753773,210013
OK,257,41,610,257,2014-08-01T09:25:00,1,20754222,210013
OK,219,48,610,219,2014-08-01T09:30:00,2,20754671,210013
OK,219,48,610,219,2014-08-01T09:35:00,2,20755120,210013
OK,170,62,610,170,2014-08-01T09:40:00,0,20755569,210013
OK,170,62,610,170,2014-08-01T09:45:00,0,20756018,210013
OK,170,62,610,170,2014-08-01T09:50:00,0,20756467,210013
OK,170,62,610,170,2014-08-01T09:55:00,0,20756916,210013
OK,170,62,610,170,2014-08-01T10:00:00,0,20757365,210013
OK,170,62,610,170,2014-08-01T10:05:00,0,20757814,210013
OK,170,62,610,170,2014-08-01T10:10:00,0,20758263,210013
OK,170,62,610,170,2014-08-01T10:15:00,0,20758712,210013
OK,170,62,610,170,2014-08-01T10:20:00,0,20759161,210013
OK,170,62,610,170,2014-08-01T10:25:00,0,20759610,210013
OK,170,62,610,170,2014-08-01T10:30:00,0,20760059,210013
OK,243,43,610,243,2014-08-01T10:35:00,1,20760508,210013
OK,218,48,610,218,2014-08-01T10:40:00,2,20760957,210013
OK,193,54,610,193,2014-08-01T10:45:00,1,20761406,210013
OK,246,42,610,246,2014-08-01T10:50:00,3,20761855,210013
OK,248,42,610,248,2014-08-01T10:55:00,4,20762304,210013
OK,256,41,610,256,2014-08-01T11:00:00,2,20762753,210013
OK,246,42,610,246,2014-08-01T11:05:00,1,20763202,210013
OK,246,42,610,246,2014-08-01T11:10:00,0,20763651,210013
OK,246,42,610,246,2014-08-01T11:15:00,0,20764100,210013
OK,202,52,610,202,2014-08-01T11:20:00,1,20764548,210013
OK,202,52,610,202,2014-08-01T11:25:00,1,20764997,210013
OK,202,52,610,202,2014-08-01T11:30:00,0,20765446,210013
OK,202,52,610,202,2014-08-01T11:35:00,0,20765895,210013
OK,202,52,610,202,2014-08-01T11:40:00,0,20766344,210013
OK,178,59,610,178,2014-08-01T11:45:00,1,20766793,210013
OK,178,59,610,178,2014-08-01T11:50:00,1,20767242,210013
OK,178,59,610,178,2014-08-01T11:55:00,0,20767691,210013
OK,178,59,610,178,2014-08-01T12:00:00,0,20768140,210013
OK,255,41,610,255,2014-08-01T12:05:00,1,20768589,210013
OK,255,41,610,255,2014-08-01T12:10:00,1,20769038,210013
OK,189,55,610,189,2014-08-01T12:15:00,1,20769487,210013
OK,189,55,610,189,2014-08-01T12:20:00,1,20769936,210013
OK,189,55,610,189,2014-08-01T12:25:00,0,20770385,210013
OK,189,55,610,189,2014-08-01T12:30:00,0,20770834,210013
OK,189,55,610,189,2014-08-01T12:35:00,0,20771283,210013
OK,189,55,610,189,2014-08-01T12:40:00,0,20771732,210013
OK,189,55,610,189,2014-08-01T12:45:00,0,20772181,210013
OK,222,47,610,222,2014-08-01T12:50:00,1,20772630,210013
OK,222,47,610,222,2014-08-01T12:55:00,0,20773079,210013
OK,222,47,610,222,2014-08-01T13:00:00,0,20773528,210013
OK,195,54,610,195,2014-08-01T13:05:00,1,20773977,210013
OK,222,47,610,222,2014-08-01T13:10:00,2,20774426,210013
OK,250,42,610,250,2014-08-01T13:15:00,1,20774875,210013
OK,250,42,610,250,2014-08-01T13:20:00,0,20775324,210013
OK,240,44,610,240,2014-08-01T13:25:00,1,20775773,210013
OK,235,44,610,235,2014-08-01T13:30:00,2,20776222,210013
OK,231,45,610,231,2014-08-01T13:35:00,0,20776671,210013
OK,428,24,610,428,2014-08-01T13:40:00,1,20777120,210013
OK,289,36,610,289,2014-08-01T13:45:00,4,20777569,210013
OK,240,44,610,240,2014-08-01T13:50:00,3,20778018,210013
OK,240,44,610,240,2014-08-01T13:55:00,0,20778467,210013
OK,181,58,610,181,2014-08-01T14:00:00,1,20778916,210013
OK,181,58,610,181,2014-08-01T14:05:00,1,20779365,210013
OK,181,58,610,181,2014-08-01T14:10:00,0,20779814,210013
OK,424,24,610,424,2014-08-01T14:15:00,1,20780263,210013
OK,315,33,610,315,2014-08-01T14:20:00,2,20780712,210013
OK,206,51,610,206,2014-08-01T14:25:00,2,20781161,210013
OK,206,51,610,206,2014-08-01T14:30:00,1,20781610,210013
OK,206,51,610,206,2014-08-01T14:35:00,0,20782059,210013
OK,206,51,610,206,2014-08-01T14:40:00,0,20782508,210013
OK,233,45,610,233,2014-08-01T14:45:00,1,20782957,210013
OK,233,45,610,233,2014-08-01T14:50:00,1,20783406,210013
OK,233,45,610,233,2014-08-01T14:55:00,0,20783855,210013
OK,192,55,610,192,2014-08-01T15:00:00,1,20784304,210013
OK,192,55,610,192,2014-08-01T15:05:00,1,20784753,210013
OK,192,55,610,192,2014-08-01T15:10:00,0,20785202,210013
OK,192,55,610,192,2014-08-01T15:15:00,0,20785651,210013
OK,192,55,610,192,2014-08-01T15:20:00,0,20786100,210013
OK,192,55,610,192,2014-08-01T15:25:00,0,20786549,210013
OK,192,55,610,192,2014-08-01T15:30:00,0,20786998,210013
OK,192,55,610,192,2014-08-01T15:35:00,0,20787447,210013
OK,192,55,610,192,2014-08-01T15:40:00,0,20787896,210013
OK,192,55,610,192,2014-08-01T15:45:00,0,20788345,210013
OK,208,50,610,208,2014-08-01T15:50:00,1,20788794,210013
OK,208,50,610,208,2014-08-01T15:55:00,1,20789243,210013
OK,208,50,610,208,2014-08-01T16:00:00,0,20789692,210013
OK,208,50,610,208,2014-08-01T16:05:00,0,20790141,210013
OK,208,50,610,208,2014-08-01T16:10:00,0,20790590,210013
OK,208,50,610,208,2014-08-01T16:15:00,0,20791039,210013
OK,208,50,610,208,2014-08-01T16:20:00,0,20791488,210013
OK,208,50,610,208,2014-08-01T16:25:00,0,20791937,210013
OK,208,50,610,208,2014-08-01T16:30:00,0,20792386,210013
OK,208,50,610,208,2014-08-01T16:35:00,0,20792835,210013
OK,208,50,610,208,2014-08-01T16:40:00,0,20793284,210013
OK,208,50,610,208,2014-08-01T16:45:00,0,20793733,210013
OK,223,47,610,223,2014-08-01T16:50:00,1,20794182,210013
OK,223,47,610,223,2014-08-01T16:55:00,0,20794631,210013
OK,223,47,610,223,2014-08-01T17:00:00,0,20795080,210013
OK,223,47,610,223,2014-08-01T17:05:00,0,20795529,210013
OK,223,47,610,223,2014-08-01T17:10:00,0,20795978,210013
OK,223,47,610,223,2014-08-01T17:15:00,0,20796427,210013
OK,223,47,610,223,2014-08-01T17:20:00,0,20796876,210013
OK,223,47,610,223,2014-08-01T17:25:00,0,20797325,210013
OK,223,47,610,223,2014-08-01T17:30:00,0,20797774,210013
OK,223,47,610,223,2014-08-01T17:35:00,0,20798223,210013
OK,223,47,610,223,2014-08-01T17:40:00,0,20798672,210013
OK,223,47,610,223,2014-08-01T17:45:00,0,20799121,210013
OK,223,47,610,223,2014-08-01T17:50:00,0,20799570,210013
OK,223,47,610,223,2014-08-01T17:55:00,0,20800019,210013
OK,223,47,610,223,2014-08-01T18:00:00,0,20800468,210013
OK,223,47,610,223,2014-08-01T18:05:00,0,20800917,210013
OK,223,47,610,223,2014-08-01T18:10:00,0,20801366,210013
OK,223,47,610,223,2014-08-01T18:15:00,0,20801815,210013
OK,223,47,610,223,2014-08-01T18:20:00,0,20802264,210013
OK,223,47,610,223,2014-08-01T18:25:00,0,20802713,210013
OK,223,47,610,223,2014-08-01T18:30:00,0,20803162,210013
OK,223,47,610,223,2014-08-01T18:35:00,0,20803611,210013
OK,223,47,610,223,2014-08-01T18:40:00,0,20804060,210013
OK,223,47,610,223,2014-08-01T18:45:00,0,20804509,210013
OK,223,47,610,223,2014-08-01T18:50:00,0,20804958,210013
OK,223,47,610,223,2014-08-01T18:55:00,0,20805407,210013
OK,223,47,610,223,2014-08-01T19:00:00,0,20805856,210013
OK,223,47,610,223,2014-08-01T19:05:00,0,20806305,210013
OK,223,47,610,223,2014-08-01T19:10:00,0,20806754,210013
OK,223,47,610,223,2014-08-01T19:15:00,0,20807203,210013
OK,223,47,610,223,2014-08-01T19:20:00,0,20807652,210013
OK,223,47,610,223,2014-08-01T19:25:00,0,20808101,210013
OK,223,47,610,223,2014-08-01T19:30:00,0,20808550,210013
OK,223,47,610,223,2014-08-01T19:35:00,0,20808999,210013
OK,223,47,610,223,2014-08-01T19:40:00,0,20809448,210013
OK,223,47,610,223,2014-08-01T19:45:00,0,20809897,210013
OK,223,47,610,223,2014-08-01T19:50:00,0,20810346,210013
OK,223,47,610,223,2014-08-01T19:55:00,0,20810795,210013
OK,223,47,610,223,2014-08-01T20:00:00,0,20811244,210013
OK,223,47,610,223,2014-08-01T20:05:00,0,20811417,210013
OK,223,47,610,223,2014-08-01T20:10:00,0,20811617,210013
OK,223,47,610,223,2014-08-01T20:15:00,0,20811825,210013
OK,223,47,610,223,2014-08-01T20:20:00,0,20812032,210013
OK,223,47,610,223,2014-08-01T20:25:00,0,20812253,210013
OK,223,47,610,223,2014-08-01T20:30:00,0,20812467,210013
OK,223,47,610,223,2014-08-01T20:35:00,0,20812675,210013
OK,223,47,610,223,2014-08-01T20:40:00,0,20812878,210013
OK,223,47,610,223,2014-08-01T20:45:00,0,20813083,210013
OK,223,47,610,223,2014-08-01T20:50:00,0,20813294,210013
OK,223,47,610,223,2014-08-01T20:55:00,0,20813524,210013
OK,223,47,610,223,2014-08-01T21:00:00,0,20813762,210013
OK,223,47,610,223,2014-08-01T21:05:00,0,20813941,210013
OK,223,47,610,223,2014-08-01T21:10:00,0,20814179,210013
OK,223,47,610,223,2014-08-01T21:15:00,0,20814376,210013
OK,223,47,610,223,2014-08-01T21:20:00,0,20814581,210013
OK,223,47,610,223,2014-08-01T21:25:00,0,20814812,210013
OK,223,47,610,223,2014-08-01T21:30:00,0,20815086,210013
OK,223,47,610,223,2014-08-01T21:35:00,0,20815320,210013
OK,223,47,610,223,2014-08-01T21:40:00,0,20815543,210013
OK,223,47,610,223,2014-08-01T21:45:00,0,20815780,210013
OK,223,47,610,223,2014-08-01T21:50:00,0,20816021,210013
OK,223,47,610,223,2014-08-01T21:55:00,0,20816256,210013
OK,223,47,610,223,2014-08-01T22:00:00,0,20816524,210013
OK,223,47,610,223,2014-08-01T22:05:00,0,20816973,210013
OK,223,47,610,223,2014-08-01T22:10:00,0,20817295,210013
OK,223,47,610,223,2014-08-01T22:15:00,0,20817724,210013
OK,223,47,610,223,2014-08-01T22:20:00,0,20818014,210013
OK,223,47,610,223,2014-08-01T22:25:00,0,20818330,210013
OK,223,47,610,223,2014-08-01T22:30:00,0,20818664,210013
OK,223,47,610,223,2014-08-01T22:35:00,0,20818970,210013
OK,223,47,610,223,2014-08-01T22:40:00,0,20819148,210013
OK,223,47,610,223,2014-08-01T22:45:00,0,20819436,210013
OK,223,47,610,223,2014-08-01T22:50:00,0,20819671,210013
OK,223,47,610,223,2014-08-01T22:55:00,0,20819924,210013
OK,223,47,610,223,2014-08-01T23:00:00,0,20820100,210013
OK,223,47,610,223,2014-08-01T23:05:00,0,20820353,210013
OK,223,47,610,223,2014-08-01T23:10:00,0,20820583,210013
OK,223,47,610,223,2014-08-01T23:15:00,0,20820771,210013
OK,223,47,610,223,2014-08-01T23:20:00,0,20821026,210013
OK,223,47,610,223,2014-08-01T23:25:00,0,20821200,210013
OK,223,47,610,223,2014-08-01T23:30:00,0,20821425,210013
OK,223,47,610,223,2014-08-01T23:35:00,0,20821670,210013
OK,223,47,610,223,2014-08-01T23:40:00,0,20821849,210013
OK,223,47,610,223,2014-08-01T23:45:00,0,20822072,210013
OK,223,47,610,223,2014-08-01T23:50:00,0,20822339,210013
OK,223,47,610,223,2014-08-01T23:55:00,0,20822665,210013
OK,223,47,610,223,2014-08-02T00:00:00,0,20822963,210013
OK,223,47,610,223,2014-08-02T00:05:00,0,20823412,210013
OK,223,47,610,223,2014-08-02T00:10:00,0,20823861,210013
OK,223,47,610,223,2014-08-02T00:15:00,0,20824310,210013
OK,223,47,610,223,2014-08-02T00:20:00,0,20824759,210013
OK,223,47,610,223,2014-08-02T00:25:00,0,20825208,210013
OK,223,47,610,223,2014-08-02T00:30:00,0,20825657,210013
OK,223,47,610,223,2014-08-02T00:35:00,0,20826106,210013
OK,223,47,610,223,2014-08-02T00:40:00,0,20826555,210013
OK,223,47,610,223,2014-08-02T00:45:00,0,20827004,210013
OK,223,47,610,223,2014-08-02T00:50:00,0,20827453,210013
OK,223,47,610,223,2014-08-02T00:55:00,0,20827902,210013
OK,223,47,610,223,2014-08-02T01:00:00,0,20828351,210013
OK,223,47,610,223,2014-08-02T01:05:00,0,20828800,210013
OK,223,47,610,223,2014-08-02T01:10:00,0,20829249,210013
OK,223,47,610,223,2014-08-02T01:15:00,0,20829698,210013
OK,223,47,610,223,2014-08-02T01:20:00,0,20830147,210013
OK,223,47,610,223,2014-08-02T01:25:00,0,20830596,210013
OK,223,47,610,223,2014-08-02T01:30:00,0,20831045,210013
OK,223,47,610,223,2014-08-02T01:35:00,0,20831494,210013
OK,223,47,610,223,2014-08-02T01:40:00,0,20831943,210013
OK,223,47,610,223,2014-08-02T01:45:00,0,20832392,210013
OK,223,47,610,223,2014-08-02T01:50:00,0,20832841,210013
OK,223,47,610,223,2014-08-02T01:55:00,0,20833290,210013
OK,223,47,610,223,2014-08-02T02:00:00,0,20833739,210013
OK,223,47,610,223,2014-08-02T02:05:00,0,20834188,210013
OK,223,47,610,223,2014-08-02T02:10:00,0,20834637,210013
OK,223,47,610,223,2014-08-02T02:15:00,0,20835086,210013
OK,223,47,610,223,2014-08-02T02:20:00,0,20835535,210013
OK,223,47,610,223,2014-08-02T02:25:00,0,20835984,210013
OK,223,47,610,223,2014-08-02T02:30:00,0,20836433,210013
OK,223,47,610,223,2014-08-02T02:35:00,0,20836882,210013
OK,223,47,610,223,2014-08-02T02:40:00,0,20837331,210013
OK,223,47,610,223,2014-08-02T02:45:00,0,20837780,210013
OK,223,47,610,223,2014-08-02T02:50:00,0,20838229,210013
OK,223,47,610,223,2014-08-02T02:55:00,0,20838678,210013
OK,223,47,610,223,2014-08-02T03:00:00,0,20839127,210013
OK,223,47,610,223,2014-08-02T03:05:00,0,20839576,210013
OK,223,47,610,223,2014-08-02T03:10:00,0,20840025,210013
OK,223,47,610,223,2014-08-02T03:15:00,0,20840474,210013
OK,223,47,610,223,2014-08-02T03:20:00,0,20840923,210013
OK,223,47,610,223,2014-08-02T03:25:00,0,20841372,210013
OK,223,47,610,223,2014-08-02T03:30:00,0,20841821,210013
OK,223,47,610,223,2014-08-02T03:35:00,0,20842270,210013
OK,223,47,610,223,2014-08-02T03:40:00,0,20842719,210013
OK,223,47,610,223,2014-08-02T03:45:00,0,20843168,210013
OK,223,47,610,223,2014-08-02T03:50:00,0,20843617,210013
OK,223,47,610,223,2014-08-02T03:55:00,0,20844066,210013
OK,223,47,610,223,2014-08-02T04:00:00,0,20844515,210013
OK,223,47,610,223,2014-08-02T04:05:00,0,20844646,210013
OK,223,47,610,223,2014-08-02T04:10:00,0,20844976,210013
OK,223,47,610,223,2014-08-02T04:15:00,0,20845156,210013
OK,223,47,610,223,2014-08-02T04:20:00,0,20845512,210013
OK,223,47,610,223,2014-08-02T04:25:00,0,20845880,210013
OK,223,47,610,223,2014-08-02T04:30:00,0,20846068,210013
OK,223,47,610,223,2014-08-02T04:35:00,0,20846435,210013
OK,223,47,610,223,2014-08-02T04:40:00,0,20846818,210013
OK,223,47,610,223,2014-08-02T04:45:00,0,20847077,210013
OK,223,47,610,223,2014-08-02T04:50:00,0,20847443,210013
OK,223,47,610,223,2014-08-02T04:55:00,0,20847800,210013
OK,223,47,610,223,2014-08-02T05:00:00,0,20848160,210013
OK,223,47,610,223,2014-08-02T05:05:00,0,20848327,210013
OK,223,47,610,223,2014-08-02T05:10:00,0,20848678,210013
OK,223,47,610,223,2014-08-02T05:15:00,0,20848870,210013
OK,223,47,610,223,2014-08-02T05:20:00,0,20849214,210013
OK,223,47,610,223,2014-08-02T05:25:00,0,20849532,210013
OK,223,47,610,223,2014-08-02T05:30:00,0,20849739,210013
OK,223,47,610,223,2014-08-02T05:35:00,0,20850011,210013
OK,223,47,610,223,2014-08-02T05:40:00,0,20850304,210013
OK,222,47,610,222,2014-08-02T05:45:00,2,20850605,210013
OK,197,53,610,197,2014-08-02T05:50:00,0,20850963,210013
OK,197,53,610,197,2014-08-02T05:55:00,0,20851217,210013
OK,197,53,610,197,2014-08-02T06:00:00,0,20851520,210013
OK,197,53,610,197,2014-08-02T06:05:00,0,20851969,210013
OK,197,53,610,197,2014-08-02T06:10:00,0,20852418,210013
OK,197,53,610,197,2014-08-02T06:15:00,0,20852867,210013
OK,197,53,610,197,2014-08-02T06:20:00,0,20853316,210013
OK,214,49,610,214,2014-08-02T06:25:00,1,20853765,210013
OK,214,49,610,214,2014-08-02T06:30:00,1,20854214,210013
OK,214,49,610,214,2014-08-02T06:35:00,0,20854663,210013
OK,214,49,610,214,2014-08-02T06:40:00,0,20855112,210013
OK,214,49,610,214,2014-08-02T06:45:00,0,20855561,210013
OK,214,49,610,214,2014-08-02T06:50:00,0,20856010,210013
OK,214,49,610,214,2014-08-02T06:55:00,0,20856459,210013
OK,214,49,610,214,2014-08-02T07:00:00,0,20856908,210013
OK,214,49,610,214,2014-08-02T07:05:00,0,20857357,210013
OK,214,49,610,214,2014-08-02T07:10:00,0,20857806,210013
OK,214,49,610,214,2014-08-02T07:15:00,0,20858255,210013
OK,272,38,610,272,2014-08-02T07:20:00,1,20858704,210013
OK,272,38,610,272,2014-08-02T07:25:00,1,20859153,210013
OK,272,38,610,272,2014-08-02T07:30:00,0,20859602,210013
OK,272,38,610,272,2014-08-02T07:35:00,0,20860051,210013
OK,272,38,610,272,2014-08-02T07:40:00,0,20860500,210013
OK,272,38,610,272,2014-08-02T07:45:00,0,20860949,210013
OK,272,38,610,272,2014-08-02T07:50:00,0,20861398,210013
OK,232,45,610,232,2014-08-02T07:55:00,1,20861847,210013
OK,257,41,610,257,2014-08-02T08:00:00,1,20862296,210013
OK,257,41,610,257,2014-08-02T08:05:00,1,20862745,210013
OK,257,41,610,257,2014-08-02T08:10:00,0,20863194,210013
OK,257,41,610,257,2014-08-02T08:15:00,0,20863643,210013
OK,257,41,610,257,2014-08-02T08:20:00,0,20864092,210013
OK,257,41,610,257,2014-08-02T08:25:00,0,20864541,210013
OK,257,41,610,257,2014-08-02T08:30:00,0,20864990,210013
OK,257,41,610,257,2014-08-02T08:35:00,0,20865439,210013
OK,257,41,610,257,2014-08-02T08:40:00,0,20865888,210013
OK,216,48,610,216,2014-08-02T08:45:00,2,20866337,210013
OK,200,52,610,200,2014-08-02T08:50:00,1,20866786,210013
OK,240,44,610,240,2014-08-02T08:55:00,2,20867235,210013
OK,280,37,610,280,2014-08-02T09:00:00,1,20867684,210013
OK,280,37,610,280,2014-08-02T09:05:00,0,20868133,210013
OK,280,37,610,280,2014-08-02T09:10:00,0,20868582,210013
OK,280,37,610,280,2014-08-02T09:15:00,0,20869031,210013
OK,280,37,610,280,2014-08-02T09:20:00,0,20869480,210013
OK,280,37,610,280,2014-08-02T09:25:00,0,20869929,210013
OK,280,37,610,280,2014-08-02T09:30:00,0,20870378,210013
OK,280,37,610,280,2014-08-02T09:35:00,0,20870827,210013
OK,280,37,610,280,2014-08-02T09:40:00,0,20871276,210013
OK,280,37,610,280,2014-08-02T09:45:00,0,20871725,210013
OK,280,37,610,280,2014-08-02T09:50:00,0,20872174,210013
OK,280,37,610,280,2014-08-02T09:55:00,0,20872623,210013
OK,280,37,610,280,2014-08-02T10:00:00,0,20873072,210013
OK,280,37,610,280,2014-08-02T10:05:00,0,20873521,210013
OK,280,37,610,280,2014-08-02T10:10:00,0,20873970,210013
OK,280,37,610,280,2014-08-02T10:15:00,0,20874419,210013
OK,280,37,610,280,2014-08-02T10:20:00,0,20874868,210013
OK,280,37,610,280,2014-08-02T10:25:00,0,20875317,210013
OK,280,37,610,280,2014-08-02T10:30:00,0,20875766,210013
OK,280,37,610,280,2014-08-02T10:35:00,0,20876215,210013
OK,280,37,610,280,2014-08-02T10:40:00,0,20876664,210013
OK,280,37,610,280,2014-08-02T10:45:00,0,20877113,210013
OK,199,53,610,199,2014-08-02T10:50:00,1,20877562,210013
OK,204,51,610,204,2014-08-02T10:55:00,2,20878011,210013
OK,210,50,610,210,2014-08-02T11:00:00,1,20878460,210013
OK,210,50,610,210,2014-08-02T11:05:00,0,20878909,210013
OK,210,50,610,210,2014-08-02T11:10:00,0,20879358,210013
OK,210,50,610,210,2014-08-02T11:15:00,0,20879807,210013
OK,210,50,610,210,2014-08-02T11:20:00,0,20880256,210013
OK,210,50,610,210,2014-08-02T11:25:00,0,20880705,210013
OK,224,47,610,224,2014-08-02T11:30:00,1,20881154,210013
OK,224,47,610,224,2014-08-02T11:35:00,1,20881603,210013
OK,224,47,610,224,2014-08-02T11:40:00,0,20882052,210013
OK,224,47,610,224,2014-08-02T11:45:00,0,20882501,210013
OK,224,47,610,224,2014-08-02T11:50:00,0,20882950,210013
OK,204,51,610,204,2014-08-02T11:55:00,1,20883399,210013
OK,204,51,610,204,2014-08-02T12:00:00,0,20883848,210013
OK,218,48,610,218,2014-08-02T12:05:00,1,20884297,210013
OK,218,48,610,218,2014-08-02T12:10:00,1,20884746,210013
OK,218,48,610,218,2014-08-02T12:15:00,0,20885195,210013
OK,218,48,610,218,2014-08-02T12:20:00,0,20885644,210013
OK,218,48,610,218,2014-08-02T12:25:00,0,20886093,210013
OK,218,48,610,218,2014-08-02T12:30:00,0,20886542,210013
OK,218,48,610,218,2014-08-02T12:35:00,0,20886991,210013
OK,228,46,610,228,2014-08-02T12:40:00,1,20887440,210013
OK,228,46,610,228,2014-08-02T12:45:00,0,20887889,210013
OK,228,46,610,228,2014-08-02T12:50:00,0,20888338,210013
OK,187,56,610,187,2014-08-02T12:55:00,1,20888787,210013
OK,187,56,610,187,2014-08-02T13:00:00,1,20889236,210013
OK,187,56,610,187,2014-08-02T13:05:00,0,20889685,210013
OK,187,56,610,187,2014-08-02T13:10:00,0,20890134,210013
OK,260,40,610,260,2014-08-02T13:15:00,1,20890583,210013
OK,260,40,610,260,2014-08-02T13:20:00,1,20891032,210013
OK,260,40,610,260,2014-08-02T13:25:00,0,20891481,210013
OK,260,40,610,260,2014-08-02T13:30:00,0,20891930,210013
OK,260,40,610,260,2014-08-02T13:35:00,0,20892379,210013
OK,260,40,610,260,2014-08-02T13:40:00,0,20892828,210013
OK,260,40,610,260,2014-08-02T13:45:00,0,20893277,210013
OK,260,40,610,260,2014-08-02T13:50:00,0,20893726,210013
OK,260,40,610,260,2014-08-02T13:55:00,0,20894175,210013
OK,260,40,610,260,2014-08-02T14:00:00,0,20894624,210013
OK,241,43,610,241,2014-08-02T14:05:00,1,20895073,210013
OK,241,43,610,241,2014-08-02T14:10:00,0,20895522,210013
OK,241,43,610,241,2014-08-02T14:15:00,0,20895971,210013
OK,241,43,610,241,2014-08-02T14:20:00,0,20896420,210013
OK,241,43,610,241,2014-08-02T14:25:00,0,20896869,210013
OK,241,43,610,241,2014-08-02T14:30:00,0,20897318,210013
OK,241,43,610,241,2014-08-02T14:35:00,0,20897767,210013
OK,171,61,610,171,2014-08-02T14:40:00,1,20898216,210013
OK,171,61,610,171,2014-08-02T14:45:00,1,20898665,210013
OK,171,61,610,171,2014-08-02T14:50:00,0,20899114,210013
OK,171,61,610,171,2014-08-02T14:55:00,0,20899563,210013
OK,171,61,610,171,2014-08-02T15:00:00,0,20900012,210013
OK,171,61,610,171,2014-08-02T15:05:00,0,20900461,210013
OK,171,61,610,171,2014-08-02T15:10:00,0,20900910,210013
OK,171,61,610,171,2014-08-02T15:15:00,0,20901359,210013
OK,171,61,610,171,2014-08-02T15:20:00,0,20901808,210013
OK,171,61,610,171,2014-08-02T15:25:00,0,20902257,210013
OK,171,61,610,171,2014-08-02T15:30:00,0,20902706,210013
OK,171,61,610,171,2014-08-02T15:35:00,0,20903155,210013
OK,171,61,610,171,2014-08-02T15:40:00,0,20903604,210013
OK,171,61,610,171,2014-08-02T15:45:00,0,20904053,210013
OK,171,61,610,171,2014-08-02T15:50:00,0,20904502,210013
OK,171,61,610,171,2014-08-02T15:55:00,0,20904951,210013
OK,171,61,610,171,2014-08-02T16:00:00,0,20905400,210013
OK,171,61,610,171,2014-08-02T16:05:00,0,20905849,210013
OK,171,61,610,171,2014-08-02T16:10:00,0,20906298,210013
OK,171,61,610,171,2014-08-02T16:15:00,0,20906747,210013
OK,171,61,610,171,2014-08-02T16:20:00,0,20907196,210013
OK,171,61,610,171,2014-08-02T16:25:00,0,20907645,210013
OK,171,61,610,171,2014-08-02T16:30:00,0,20908094,210013
OK,171,61,610,171,2014-08-02T16:35:00,0,20908543,210013
OK,171,61,610,171,2014-08-02T16:40:00,0,20908992,210013
OK,171,61,610,171,2014-08-02T16:45:00,0,20909441,210013
OK,171,61,610,171,2014-08-02T16:50:00,0,20909890,210013
OK,171,61,610,171,2014-08-02T16:55:00,0,20910339,210013
OK,171,61,610,171,2014-08-02T17:00:00,0,20910788,210013
OK,171,61,610,171,2014-08-02T17:05:00,0,20911237,210013
OK,171,61,610,171,2014-08-02T17:10:00,0,20911686,210013
OK,171,61,610,171,2014-08-02T17:15:00,0,20912135,210013
OK,171,61,610,171,2014-08-02T17:20:00,0,20912584,210013
OK,171,61,610,171,2014-08-02T17:25:00,0,20913033,210013
OK,171,61,610,171,2014-08-02T17:30:00,0,20913482,210013
OK,171,61,610,171,2014-08-02T17:35:00,0,20913931,210013
OK,171,61,610,171,2014-08-02T17:40:00,0,20914380,210013
OK,171,61,610,171,2014-08-02T17:45:00,0,20914829,210013
OK,171,61,610,171,2014-08-02T17:50:00,0,20915278,210013
OK,171,61,610,171,2014-08-02T17:55:00,0,20915727,210013
OK,171,61,610,171,2014-08-02T18:00:00,0,20916176,210013
OK,171,61,610,171,2014-08-02T18:05:00,0,20916625,210013
OK,246,42,610,246,2014-08-02T18:10:00,1,20917074,210013
OK,246,42,610,246,2014-08-02T18:15:00,0,20917523,210013
OK,246,42,610,246,2014-08-02T18:20:00,0,20917972,210013
OK,246,42,610,246,2014-08-02T18:25:00,0,20918421,210013
OK,246,42,610,246,2014-08-02T18:30:00,0,20918870,210013
OK,246,42,610,246,2014-08-02T18:35:00,0,20919319,210013
OK,246,42,610,246,2014-08-02T18:40:00,0,20919768,210013